DMSP 5D-2 F13 DEB, 42294

Orbit data source: Space-Track

DMSP 5D-2 F13 DEB, 42294 is space debris in SSO originally from a launch on Fri, 24 Mar 1995 UTC launched from the Air Force Western Test Range (AFWTR). Debris objects in space refer to the collection of defunct objects orbiting the Earth. Examples of debris include non-operational satellites, rocket bodies, and fragments generated from explosions, collisions, or faulty payload assembly.

Loading next visibility...
Identifier
42294, 1995-015HL
Orbit
SSO
Country
Flag of USUS
Related business
Manufacturer
Unknown
Mission
Spacecraft
Bus & Motor
Unknown
Mass
Unknown
Launch date (UTC)
1995-03-24 (31 years ago)
Launch vehicle
Unknown
Launch site
Air Force Western Test Range (AFWTR)
Object type
Payload
Rocket body
Debris
Shape & HBR
Unknown shape, 0.1 m
Radar Cross Section
Small (<0.1 m²)

Expand to show TLE details & history
Last TLE update: 22 hours ago

TLE from 22 hours ago
0 DMSP 5D-2 F13 DEB
1 42294U 95015HL  25291.57128073  .00112998  00000-0  13847-1 0  9997
2 42294  98.8750 328.6126 0015271 208.4319 151.6060 14.82439156539370
Epoch: 2025-10-18T13:42Z
TLE epoch observation values (Epoch: 2025-10-18T13:42:38.655Z)
Latitude
0.00005°
Longitude
95.65114°
Altitude
634.038 km
Speed
7.536 km/s
True Right ascension
21h 54m 27s
True Declination
0° 00' 00"
Sunlit
Object was in full shadow at epoch
Visualization orbit readout
Latitude
Unknown
Longitude
Unknown
Altitude
Unknown
Speed
Unknown
Apparent Right ascension
Unknown
Apparent Declination
Unknown
Sunlit
N/A
Visualization observer readout
Local Sidereal Time
06:25:24
Azimuth
Unknown
Elevation
Unknown
Doppler factor
Unknown
Orbital elements
Apogee altitude
629.404 km
Perigee altitude
608.034 km
Semi-major axis
6,996.856 km
Eccentricity
0.00153
Inclination
98.875°
RAAN
328.6126°
Arg. of periapsis
208.4319°
True anomaly
151.68908°
Mean anomaly
151.606°
Eccentric anomaly
151.64755°
Mean motion
3.70842 °/min
Orbital period
97.08 mins
BSTAR
0.013847

Documentation

Showing up to 5 results
|